Weather History for Manchester, NH

Change the Weather History Date:

Monday, March 11, 2013

  Actual Average Record
Temperature  
Mean Temperature 42 °F -  
Max Temperature 51 °F 42 °F 68 °F (1977)
Min Temperature 32 °F 20 °F -7 °F (1996)
Degree Days  
Heating Degree Days 24    
Moisture  
Dew Point 31 °F    
Average Humidity 68    
Maximum Humidity 89    
Minimum Humidity 41    
Precipitation  
Precipitation 0.00 in - - ()
Snow  
Snow 0.00 in - - ()
Snow Depth 2.00 in    
Sea Level Pressure  
Sea Level Pressure 30.23 in    
Wind  
Wind Speed 6 mph (South)    
Max Wind Speed 12 mph    
Max Gust Speed -    
Visibility 10 miles    
Events      
Averages and records for this station are not official NWS values.
T = Trace of Precipitation, MM = Missing Value Source: NWS Daily Summary

Daily Weather History Graph

Daily Weather History Graph

Search for Another Location

Airport:

Trip Planner

Search our weather history database for the weather conditions in past years. The results will help you decide how hot, cold, wet, or windy it might be!

Date:

Astronomy

Mar. 11, 2013 Rise Set
Actual Time 7:04 AM EDT 6:47 PM EDT
Civil Twilight 6:36 AM EDT 7:15 PM EDT
Nautical Twilight 6:03 AM EDT 7:48 PM EDT
Astronomical Twilight 5:30 AM EDT 8:22 PM EDT
Moon 6:35 AM EDT (3/11) 6:58 PM EDT (3/11)
Length of Visible Light 12h 39m
Length of Day
11h 43m
Waning Crescent, 0% of the Moon is Illuminated
Mar 11
Waning Crescent
Mar 11
New
Mar 19
First Quarter
Mar 27
Full
Apr 3
Last Quarter

Hourly Weather History & Observations

Time (EDT) Temp. Windchill Dew Point Humidity Pressure Visibility Wind Dir Wind Speed Gust Speed Precip Events Conditions
12:53 AM 34.0 °F 31.0 °F 28.9 °F 82% 30.33 in 10.0 mi South 3.5 mph - N/A   Clear
1:53 AM 33.1 °F 30.0 °F 28.9 °F 85% 30.34 in 10.0 mi SE 3.5 mph - N/A   Clear
2:53 AM 34.0 °F - 28.9 °F 82% 30.32 in 10.0 mi Calm Calm - N/A   Scattered Clouds
3:53 AM 33.1 °F 28.7 °F 28.9 °F 85% 30.29 in 10.0 mi South 4.6 mph - N/A   Clear
4:53 AM 32.0 °F 27.5 °F 28.9 °F 88% 30.28 in 10.0 mi South 4.6 mph - N/A   Clear
5:53 AM 33.1 °F 25.5 °F 28.9 °F 85% 30.27 in 10.0 mi South 9.2 mph - N/A   Clear
6:53 AM 33.1 °F 27.7 °F 28.9 °F 85% 30.28 in 10.0 mi SSE 5.8 mph - N/A   Clear
7:53 AM 33.1 °F 26.9 °F 30.0 °F 89% 30.28 in 9.0 mi South 6.9 mph - N/A   Clear
8:53 AM 35.1 °F 27.9 °F 30.0 °F 82% 30.28 in 10.0 mi South 9.2 mph - N/A   Clear
9:53 AM 39.0 °F 32.8 °F 30.0 °F 70% 30.27 in 10.0 mi SSW 9.2 mph - N/A   Clear
10:53 AM 42.1 °F 38.4 °F 28.9 °F 60% 30.27 in 10.0 mi South 5.8 mph - N/A   Clear
11:53 AM 45.0 °F 41.2 °F 28.9 °F 53% 30.26 in 10.0 mi SW 6.9 mph - N/A   Clear
12:53 PM 48.0 °F - 28.9 °F 48% 30.25 in 10.0 mi South 11.5 mph - N/A   Clear
1:53 PM 48.9 °F - 30.0 °F 48% 30.22 in 10.0 mi South 11.5 mph - N/A   Partly Cloudy
2:53 PM 50.0 °F - 28.9 °F 44% 30.21 in 10.0 mi South 9.2 mph - N/A   Scattered Clouds
3:53 PM 51.1 °F - 28.0 °F 41% 30.20 in 10.0 mi SSW 6.9 mph - N/A   Mostly Cloudy
4:53 PM 50.0 °F - 30.0 °F 46% 30.19 in 10.0 mi South 5.8 mph - N/A   Mostly Cloudy
5:53 PM 50.0 °F - 30.0 °F 46% 30.18 in 10.0 mi SSE 5.8 mph - N/A   Mostly Cloudy
6:53 PM 48.9 °F - 30.9 °F 50% 30.17 in 10.0 mi SSE 8.1 mph - N/A   Mostly Cloudy
7:53 PM 48.9 °F - 36.0 °F 61% 30.17 in 10.0 mi SSE 9.2 mph - N/A   Partly Cloudy
8:53 PM 46.0 °F 40.6 °F 36.0 °F 68% 30.18 in 10.0 mi SSE 11.5 mph - N/A   Clear
9:53 PM 44.1 °F 40.1 °F 37.0 °F 76% 30.17 in 10.0 mi South 6.9 mph - N/A   Clear
10:19 PM 44.6 °F 40.7 °F 37.4 °F 76% 30.12 in 10.0 mi South 6.9 mph - N/A   Mostly Cloudy
10:53 PM 43.0 °F 38.8 °F 37.0 °F 80% 30.16 in 10.0 mi South 6.9 mph - N/A   Mostly Cloudy
11:53 PM 42.8 °F 38.6 °F 37.4 °F 81% 30.12 in 10.0 mi South 6.9 mph - N/A   Mostly Cloudy